TimeCDT,TemperatureF,Dew PointF,Humidity,Sea Level PressureIn,VisibilityMPH,Wind Direction,Wind SpeedMPH,Gust SpeedMPH,PrecipitationIn,Events,Conditions,WindDirDegrees,DateUTC
12:13 AM,75.2,66.2,73,30.01,10.0,SSE,12.7,18.4,N/A,,Overcast,160,2013-07-14 05:13:00
12:33 AM,73.4,66.2,78,30.02,10.0,South,10.4,-,N/A,,Overcast,170,2013-07-14 05:33:00
12:54 AM,73.4,66.2,78,30.03,10.0,South,11.5,-,N/A,,Overcast,170,2013-07-14 05:54:00
1:13 AM,73.4,66.2,78,30.03,10.0,SSE,10.4,-,N/A,,Mostly Cloudy,160,2013-07-14 06:13:00
1:33 AM,73.4,66.2,78,30.04,10.0,South,11.5,16.1,N/A,,Mostly Cloudy,170,2013-07-14 06:33:00
1:54 AM,73.4,64.4,73,30.03,10.0,South,15.0,18.4,N/A,,Mostly Cloudy,170,2013-07-14 06:54:00
2:13 AM,73.4,64.4,73,30.02,10.0,SSE,13.8,18.4,N/A,,Mostly Cloudy,160,2013-07-14 07:13:00
2:33 AM,73.4,64.4,73,30.01,10.0,SSE,15.0,19.6,N/A,,Mostly Cloudy,160,2013-07-14 07:33:00
2:53 AM,73.4,64.4,73,30.00,10.0,SSE,12.7,19.6,N/A,,Scattered Clouds,160,2013-07-14 07:53:00
3:13 AM,73.4,64.4,73,29.99,10.0,South,12.7,20.7,N/A,,Mostly Cloudy,170,2013-07-14 08:13:00
3:33 AM,71.6,64.4,78,29.99,10.0,South,13.8,23.0,N/A,,Overcast,170,2013-07-14 08:33:00
3:53 AM,71.6,64.4,78,29.99,10.0,South,13.8,-,N/A,,Overcast,170,2013-07-14 08:53:00
4:13 AM,71.6,64.4,78,30.00,10.0,South,13.8,23.0,N/A,Thunderstorm,Thunderstorm,170,2013-07-14 09:13:00
4:33 AM,71.6,64.4,78,30.04,10.0,SSW,10.4,21.9,N/A,Thunderstorm,Overcast,210,2013-07-14 09:33:00
4:53 AM,71.6,64.4,78,30.06,10.0,WSW,4.6,-,N/A,Thunderstorm,Thunderstorm,250,2013-07-14 09:53:00
5:14 AM,71.6,64.4,78,30.05,10.0,South,4.6,-,N/A,Thunderstorm,Overcast,170,2013-07-14 10:14:00
5:33 AM,71.6,64.4,78,30.05,10.0,SSE,4.6,-,N/A,Thunderstorm,Mostly Cloudy,160,2013-07-14 10:33:00
5:53 AM,71.6,64.4,78,30.06,10.0,SSE,4.6,-,N/A,Thunderstorm,Scattered Clouds,150,2013-07-14 10:53:00
6:13 AM,69.8,64.4,83,30.06,10.0,South,9.2,-,N/A,,Mostly Cloudy,180,2013-07-14 11:13:00
6:33 AM,69.8,62.6,78,30.06,10.0,South,8.1,-,N/A,,Mostly Cloudy,180,2013-07-14 11:33:00
6:53 AM,69.8,62.6,78,30.06,10.0,South,10.4,-,N/A,,Mostly Cloudy,190,2013-07-14 11:53:00
7:13 AM,69.8,62.6,78,30.06,10.0,SSW,9.2,-,N/A,Thunderstorm,Scattered Clouds,200,2013-07-14 12:13:00
7:34 AM,69.8,62.6,78,30.07,10.0,SSW,9.2,-,N/A,,Mostly Cloudy,200,2013-07-14 12:34:00
7:53 AM,69.8,60.8,73,30.07,10.0,SSW,9.2,-,N/A,,Mostly Cloudy,200,2013-07-14 12:53:00
8:13 AM,68.0,62.6,83,30.07,7.0,SSW,5.8,-,0.01,Rain,Rain,200,2013-07-14 13:13:00
8:33 AM,66.2,62.6,88,30.08,5.0,South,11.5,-,0.05,Rain-Thunderstorm,Heavy Thunderstorms and Rain,190,2013-07-14 13:33:00
8:53 AM,66.2,62.6,88,30.10,7.0,SSW,10.4,-,0.05,Rain-Thunderstorm,Thunderstorms and Rain,210,2013-07-14 13:53:00
9:10 AM,64.4,62.6,94,30.10,5.0,SW,4.6,-,0.08,Thunderstorm,Thunderstorm,220,2013-07-14 14:10:00
9:33 AM,66.2,62.6,88,30.10,7.0,SSE,4.6,-,0.01,Rain,Light Rain,160,2013-07-14 14:33:00
9:53 AM,66.2,62.6,88,30.12,7.0,South,3.5,-,0.02,Rain-Thunderstorm,Light Thunderstorms and Rain,180,2013-07-14 14:53:00
10:13 AM,66.2,64.4,94,30.12,10.0,Calm,Calm,-,0.01,Rain,Light Rain,0,2013-07-14 15:13:00
10:33 AM,68.0,62.6,83,30.12,7.0,SSE,8.1,-,0.01,,Overcast,160,2013-07-14 15:33:00
10:53 AM,66.2,62.6,88,30.13,4.0,SW,4.6,-,0.10,Rain,Heavy Rain,220,2013-07-14 15:53:00
11:13 AM,64.4,60.8,88,30.14,3.0,South,3.5,-,0.23,Rain,Heavy Rain,180,2013-07-14 16:13:00
11:33 AM,64.4,60.8,88,30.14,7.0,South,9.2,-,0.08,Rain,Rain,170,2013-07-14 16:33:00
11:53 AM,64.4,60.8,88,30.14,7.0,SE,5.8,-,0.05,Rain,Light Rain,140,2013-07-14 16:53:00
12:13 PM,64.4,60.8,88,30.13,5.0,SSE,4.6,-,0.05,Rain,Heavy Rain,150,2013-07-14 17:13:00
12:33 PM,64.4,62.6,94,30.14,10.0,SSE,3.5,-,0.03,Rain,Light Rain,160,2013-07-14 17:33:00
12:53 PM,66.2,62.6,88,30.14,10.0,Calm,Calm,-,0.01,Rain,Rain,0,2013-07-14 17:53:00
1:13 PM,66.2,62.6,88,30.14,7.0,Calm,Calm,-,N/A,Rain,Rain,0,2013-07-14 18:13:00
1:34 PM,66.2,64.4,94,30.14,7.0,Calm,Calm,-,0.03,Rain,Rain,0,2013-07-14 18:34:00
1:53 PM,68.0,62.6,83,30.15,7.0,South,10.4,-,0.02,Rain,Rain,170,2013-07-14 18:53:00
2:13 PM,66.2,64.4,94,30.15,10.0,SSW,6.9,-,0.05,Rain,Rain,210,2013-07-14 19:13:00
2:34 PM,66.2,62.6,88,30.14,10.0,Calm,Calm,-,0.01,Rain,Light Rain,0,2013-07-14 19:34:00
2:53 PM,66.2,64.4,94,30.14,4.0,Calm,Calm,-,0.05,Rain,Heavy Rain,0,2013-07-14 19:53:00
3:13 PM,68.0,64.4,88,30.14,10.0,Calm,Calm,-,N/A,Rain,Light Rain,0,2013-07-14 20:13:00
3:33 PM,69.8,64.4,83,30.14,10.0,Calm,Calm,-,N/A,,Overcast,0,2013-07-14 20:33:00
3:53 PM,69.8,64.4,83,30.14,10.0,Calm,Calm,-,N/A,,Overcast,0,2013-07-14 20:53:00
4:13 PM,69.8,64.4,83,30.14,10.0,Calm,Calm,-,N/A,,Overcast,0,2013-07-14 21:13:00
4:33 PM,69.8,64.4,83,30.14,10.0,NW,3.5,-,N/A,,Overcast,320,2013-07-14 21:33:00
4:53 PM,69.8,64.4,83,30.14,10.0,NNW,5.8,-,N/A,,Overcast,340,2013-07-14 21:53:00
5:14 PM,69.8,64.4,83,30.15,10.0,NNW,4.6,-,N/A,Rain,Light Rain,340,2013-07-14 22:14:00
5:33 PM,69.8,66.2,88,30.15,10.0,Calm,Calm,-,N/A,,Mostly Cloudy,0,2013-07-14 22:33:00
5:53 PM,71.6,66.2,83,30.14,10.0,Calm,Calm,-,N/A,,Overcast,0,2013-07-14 22:53:00
6:14 PM,71.6,66.2,83,30.14,10.0,Calm,Calm,-,N/A,,Overcast,0,2013-07-14 23:14:00
6:33 PM,71.6,66.2,83,30.14,10.0,Calm,Calm,-,N/A,,Mostly Cloudy,0,2013-07-14 23:33:00
6:53 PM,71.6,68.0,88,30.14,10.0,Calm,Calm,-,N/A,,Mostly Cloudy,0,2013-07-14 23:53:00
7:14 PM,71.6,68.0,88,30.14,10.0,Calm,Calm,-,N/A,,Mostly Cloudy,0,2013-07-15 00:14:00
7:33 PM,71.6,68.0,88,30.14,10.0,Calm,Calm,-,N/A,,Mostly Cloudy,0,2013-07-15 00:33:00
7:53 PM,71.6,68.0,88,30.14,10.0,Calm,Calm,-,N/A,,Mostly Cloudy,0,2013-07-15 00:53:00
8:13 PM,71.6,68.0,88,30.15,10.0,Calm,Calm,-,N/A,,Scattered Clouds,0,2013-07-15 01:13:00
8:33 PM,71.6,68.0,88,30.15,10.0,ESE,3.5,-,N/A,,Mostly Cloudy,110,2013-07-15 01:33:00
8:53 PM,71.6,68.0,88,30.15,10.0,ESE,4.6,-,N/A,,Scattered Clouds,110,2013-07-15 01:53:00
9:13 PM,71.6,68.0,88,30.16,10.0,East,3.5,-,N/A,,Mostly Cloudy,100,2013-07-15 02:13:00
9:33 PM,71.6,68.0,88,30.17,10.0,Calm,Calm,-,N/A,,Scattered Clouds,0,2013-07-15 02:33:00
9:53 PM,71.6,68.0,88,30.18,10.0,ESE,3.5,-,N/A,,Mostly Cloudy,110,2013-07-15 02:53:00
10:13 PM,71.6,66.2,83,30.18,10.0,Calm,Calm,-,N/A,,Scattered Clouds,0,2013-07-15 03:13:00
10:33 PM,69.8,66.2,88,30.19,10.0,Calm,Calm,-,N/A,,Clear,0,2013-07-15 03:33:00
10:54 PM,69.8,66.2,88,30.19,7.0,Calm,Calm,-,N/A,,Mostly Cloudy,0,2013-07-15 03:54:00
11:13 PM,69.8,66.2,88,30.19,10.0,Calm,Calm,-,N/A,,Mostly Cloudy,0,2013-07-15 04:13:00
11:33 PM,69.8,66.2,88,30.20,10.0,East,3.5,-,N/A,,Mostly Cloudy,100,2013-07-15 04:33:00
11:53 PM,69.8,66.2,88,30.20,10.0,Calm,Calm,-,N/A,,Mostly Cloudy,0,2013-07-15 04:53:00